Regional Weather Roundup
Issued by NWS

Home | Current Version | Previous Version | Text Only | Print | Product List | Glossary On
Versions: 1 2 3 4 5 6 7 8 9 10 11 12 13 14 15 16 17 18 19 20 21 22 23 24 25 26 27 28 29 30 31 32 33 34 35 36 37 38 39 40 41 42 43 44 45 46 47 48 49 50
000
ASUS45 KREV 030010
RWRNV
NEVADA REGIONAL WEATHER ROUNDUP
NATIONAL WEATHER SERVICE RENO NV
500 PM PDT WED SEP 02 2015

NOTE: "FAIR" INDICATES FEW OR NO CLOUDS BELOW 12,000 FEET WITH NO
SIGNIFICANT WEATHER AND/OR OBSTRUCTIONS TO VISIBILITY.

NVZ001-003-004-030100-
WESTERN NEVADA

CITY           SKY/WX    TMP DP  RH WIND       PRES   REMARKS
RENO           MOSUNNY   81  31  16 W16G30    29.89S
6HR MIN TEMP:  78; 6HR MAX TEMP:  87;

CARSON CITY    FAIR      75  36  23 W13G28    29.94S
MINDEN         FAIR      77  32  19 W17G25    29.94S
SLIDE MTN        N/A     54  34  47 W33         N/A
PYRAMID LAKE     N/A     86 N/A N/A S2          N/A
FALLON         MOSUNNY   90  26  10 W17       29.82S
6HR MIN TEMP:  80; 6HR MAX TEMP:  91;

LOVELOCK       SUNNY     89  25  10 SW15      29.81F
6HR MIN TEMP:  80; 6HR MAX TEMP:  91;

HAWTHORNE      SUNNY     91  21   8 NW10      29.81F
$$

NVZ002-CAZ072-073-030100-
NORTHERN AND CENTRAL SIERRA

CITY           SKY/WX    TMP DP  RH WIND       PRES   REMARKS
S. LAKE TAHOE  SUNNY     71  34  25 S10G20    30.06S
6HR MIN TEMP:  71; 6HR MAX TEMP:  76;

TRUCKEE        MOSUNNY   72  34  25 S18G25    30.05S
                   6HR MAX TEMP:  73;

SQUAW VLY 8000   N/A     57  32  38 W14         N/A
SUSANVILLE     SUNNY     79  32  18 SW22G28   29.90S
BLUE CANYON    SUNNY     68  36  30 S13G24    30.06F
MAMMOTH LAKES  FAIR      79  23  12 SE5       30.09S
BRIDGEPORT     FAIR      73  31  21 S15G22    30.06F
$$

NVZ030-031-036-030100-
NORTHERN NEVADA

CITY           SKY/WX    TMP DP  RH WIND       PRES   REMARKS
ELKO           SUNNY     88  22   9 W15       29.85F
6HR MIN TEMP:  79; 6HR MAX TEMP:  89;

WINNEMUCCA     SUNNY     86  26  11 SW9G26    29.83F
6HR MIN TEMP:  79; 6HR MAX TEMP:  88;

WENDOVER       MOSUNNY   90  37  15 S14       29.83S
$$

NVZ035-037-030100-
CENTRAL NEVADA

CITY           SKY/WX    TMP DP  RH WIND       PRES   REMARKS
ELY            SUNNY     82  36  19 S18G36    30.01F
6HR MIN TEMP:  76; 6HR MAX TEMP:  83;

EUREKA           N/A     84  19   9 SW16G25   29.94F
6HR MIN TEMP:  80; 6HR MAX TEMP:  88;

$$

NVZ013-014-030100-
SOUTH CENTRAL NEVADA

CITY           SKY/WX    TMP DP  RH WIND       PRES   REMARKS
TONOPAH        SUNNY     85  11   6 S18G30    29.98S
6HR MIN TEMP:  79; 6HR MAX TEMP:  87;

$$

NVZ017-020-022-030100-
SOUTHERN NEVADA

CITY           SKY/WX    TMP DP  RH WIND       PRES   REMARKS
LAS VEGAS      MOSUNNY   99  39  12 S14G23    29.76F
6HR MIN TEMP:  91; 6HR MAX TEMP: 101;

N. LAS VEGAS   SUNNY     99  39  12 S21G28    29.78F
6HR MIN TEMP:  92; 6HR MAX TEMP: 100;

NELLIS AFB     MOSUNNY  100  47  16 S15G30    29.76F
6HR MIN TEMP:  93; 6HR MAX TEMP: 101;

HENDERSON        N/A     98  43  15 MISG      29.83
6HR MIN TEMP:  91; 6HR MAX TEMP:  99;

MERCURY        SUNNY     93  30  10 SW21G29   29.87F
6HR MIN TEMP:  88; 6HR MAX TEMP:  95;

$$



USA.gov is the U.S. government's official web portal to all federal, state and local government web resources and services.